JST709 YMML-YMHB

Flight info

Callsign JST709
Flight time 1h 3m
Altitude 33000
Route SUNTI3 SUNTI H169 IRSOM V33 MORGO MORGO3A
Aircraft A320/M-SDE3FGHIRWY/LB1

Departure

Time 2026-05-08 21:31
Airport Melbourne Airport (YMML)

Arrival

Time 2026-05-08 22:35
Airport Hobart International Airport (YMHB)
Time Latitude Longitude Altitude Speed Heading
2026-05-08 20:58 -37.67265 144.84768 387 ft 0 kts 172°
2026-05-08 21:21 -37.67247 144.84764 387 ft 4 kts 170°
2026-05-08 21:21 -37.67220 144.84758 388 ft 4 kts 170°
2026-05-08 21:21 -37.67193 144.84754 389 ft 4 kts 181°
2026-05-08 21:21 -37.67205 144.84747 388 ft 4 kts 212°
2026-05-08 21:22 -37.67211 144.84718 388 ft 4 kts 274°
2026-05-08 21:22 -37.67203 144.84690 388 ft 4 kts 289°
2026-05-08 21:22 -37.67200 144.84657 387 ft 4 kts 271°
2026-05-08 21:22 -37.67201 144.84623 387 ft 4 kts 265°
2026-05-08 21:23 -37.67204 144.84589 386 ft 4 kts 263°
2026-05-08 21:23 -37.67207 144.84561 386 ft 1 kts 261°
2026-05-08 21:26 -37.67209 144.84546 385 ft 5 kts 261°
2026-05-08 21:26 -37.67208 144.84497 385 ft 6 kts 283°
2026-05-08 21:26 -37.67166 144.84464 385 ft 8 kts 352°
2026-05-08 21:26 -37.67108 144.84454 386 ft 10 kts 352°
2026-05-08 21:27 -37.67053 144.84395 387 ft 13 kts 282°
2026-05-08 21:27 -37.67054 144.84275 385 ft 15 kts 289°
2026-05-08 21:27 -37.66966 144.84226 387 ft 13 kts 351°
2026-05-08 21:27 -37.66879 144.84209 389 ft 12 kts 351°
2026-05-08 21:28 -37.66796 144.84194 392 ft 12 kts 352°
2026-05-08 21:28 -37.66715 144.84179 395 ft 12 kts 351°
2026-05-08 21:28 -37.66636 144.84164 396 ft 11 kts 353°
2026-05-08 21:28 -37.66559 144.84206 402 ft 14 kts 44°
2026-05-08 21:29 -37.66526 144.84320 403 ft 15 kts 82°
2026-05-08 21:29 -37.66510 144.84454 404 ft 16 kts 81°
2026-05-08 21:29 -37.66493 144.84595 406 ft 15 kts 82°
2026-05-08 21:29 -37.66469 144.84723 408 ft 15 kts 59°
2026-05-08 21:30 -37.66385 144.84782 411 ft 13 kts
2026-05-08 21:30 -37.66307 144.84791 410 ft 11 kts
2026-05-08 21:30 -37.66230 144.84778 413 ft 12 kts 313°
2026-05-08 21:30 -37.66223 144.84735 413 ft 1 kts 274°
2026-05-08 21:31 -37.66215 144.84586 413 ft 50 kts 274°
2026-05-08 21:31 -37.66172 144.83844 413 ft 116 kts 274°
2026-05-08 21:31 -37.66108 144.82614 431 ft 163 kts 271°
2026-05-08 21:31 -37.66038 144.81189 1129 ft 160 kts 273°
2026-05-08 21:32 -37.65951 144.79791 1886 ft 160 kts 270°
2026-05-08 21:32 -37.65860 144.78360 2361 ft 173 kts 270°
2026-05-08 21:32 -37.65770 144.76744 2636 ft 194 kts 269°
2026-05-08 21:32 -37.65685 144.74948 2911 ft 215 kts 270°
2026-05-08 21:33 -37.65575 144.72977 3261 ft 237 kts 270°
2026-05-08 21:33 -37.65566 144.70843 3717 ft 252 kts 254°
2026-05-08 21:33 -37.66364 144.68870 4487 ft 251 kts 222°
2026-05-08 21:33 -37.67777 144.67640 5360 ft 252 kts 207°
2026-05-08 21:34 -37.69300 144.66494 6185 ft 258 kts 208°
2026-05-08 21:34 -37.70848 144.65283 6940 ft 266 kts 207°
2026-05-08 21:34 -37.72567 144.64340 7663 ft 267 kts 190°
2026-05-08 21:34 -37.74392 144.64168 8402 ft 268 kts 171°
2026-05-08 21:35 -37.76190 144.64802 9171 ft 269 kts 152°
2026-05-08 21:35 -37.77816 144.65989 9949 ft 273 kts 148°
2026-05-08 21:35 -37.79482 144.67250 10472 ft 286 kts 148°
2026-05-08 21:35 -37.81223 144.68567 10863 ft 302 kts 148°
2026-05-08 21:36 -37.83090 144.69976 11156 ft 320 kts 148°
2026-05-08 21:36 -37.85022 144.71429 11735 ft 326 kts 149°
2026-05-08 21:36 -37.86988 144.72905 12402 ft 330 kts 149°
2026-05-08 21:36 -37.88980 144.74400 13060 ft 334 kts 149°
2026-05-08 21:37 -37.90982 144.75905 13706 ft 338 kts 149°
2026-05-08 21:37 -37.93021 144.77438 14327 ft 342 kts 149°
2026-05-08 21:37 -37.95073 144.78978 14889 ft 345 kts 150°
2026-05-08 21:37 -37.97149 144.80538 15454 ft 348 kts 150°
2026-05-08 21:38 -37.99241 144.82115 16021 ft 351 kts 150°
2026-05-08 21:38 -38.01349 144.83707 16588 ft 355 kts 150°
2026-05-08 21:38 -38.03478 144.85318 17145 ft 358 kts 150°
2026-05-08 21:38 -38.05622 144.86942 17707 ft 361 kts 150°
2026-05-08 21:39 -38.07790 144.88581 18265 ft 364 kts 150°
2026-05-08 21:39 -38.09976 144.90233 18802 ft 368 kts 150°
2026-05-08 21:39 -38.12183 144.91902 19295 ft 371 kts 150°
2026-05-08 21:39 -38.14412 144.93592 19796 ft 374 kts 150°
2026-05-08 21:40 -38.16651 144.95293 20294 ft 377 kts 150°
2026-05-08 21:40 -38.18912 144.97015 20789 ft 380 kts 150°
2026-05-08 21:40 -38.21193 144.98753 21259 ft 383 kts 151°
2026-05-08 21:41 -38.25811 145.02264 22181 ft 389 kts 151°
2026-05-08 21:41 -38.28142 145.04034 22637 ft 392 kts 151°
2026-05-08 21:41 -38.30498 145.05826 23089 ft 395 kts 151°
2026-05-08 21:41 -38.32865 145.07633 23435 ft 398 kts 151°
2026-05-08 21:42 -38.35246 145.09454 23639 ft 400 kts 151°
2026-05-08 21:42 -38.37605 145.11258 24078 ft 402 kts 151°
2026-05-08 21:42 -38.40040 145.13121 24477 ft 404 kts 151°
2026-05-08 21:42 -38.42425 145.14946 24874 ft 406 kts 151°
2026-05-08 21:43 -38.44851 145.16800 25271 ft 407 kts 151°
2026-05-08 21:43 -38.47287 145.18663 25669 ft 409 kts 151°
2026-05-08 21:43 -38.49734 145.20528 26055 ft 410 kts 153°
2026-05-08 21:43 -38.52319 145.22033 26434 ft 409 kts 162°
2026-05-08 21:44 -38.55017 145.23219 26808 ft 410 kts 163°
2026-05-08 21:44 -38.57727 145.24406 27186 ft 412 kts 162°
2026-05-08 21:44 -38.60444 145.25600 27555 ft 414 kts 162°
2026-05-08 21:44 -38.63179 145.26807 27926 ft 416 kts 162°
2026-05-08 21:45 -38.65919 145.28019 28300 ft 417 kts 162°
2026-05-08 21:45 -38.68669 145.29233 28674 ft 419 kts 162°
2026-05-08 21:45 -38.71428 145.30451 29041 ft 421 kts 162°
2026-05-08 21:45 -38.74206 145.31676 29409 ft 423 kts 163°
2026-05-08 21:46 -38.77000 145.32908 29775 ft 425 kts 163°
2026-05-08 21:46 -38.79795 145.34142 30117 ft 427 kts 163°
2026-05-08 21:46 -38.82610 145.35388 30486 ft 428 kts 163°
2026-05-08 21:46 -38.85416 145.36632 30911 ft 426 kts 163°
2026-05-08 21:47 -38.88213 145.37870 31335 ft 425 kts 163°
2026-05-08 21:47 -38.91002 145.39103 31746 ft 424 kts 163°
2026-05-08 21:47 -38.93797 145.40342 32160 ft 423 kts 163°
2026-05-08 21:47 -38.96572 145.41577 32575 ft 422 kts 163°
2026-05-08 21:48 -38.99346 145.42814 32998 ft 421 kts 163°
2026-05-08 21:48 -39.02074 145.44028 33288 ft 421 kts 163°
2026-05-08 21:48 -39.07597 145.46496 33346 ft 419 kts 163°
2026-05-08 21:49 -39.13105 145.48959 33344 ft 419 kts 163°
2026-05-08 21:49 -39.18603 145.51421 33342 ft 418 kts 163°
2026-05-08 21:50 -39.24097 145.53886 33338 ft 418 kts 163°
2026-05-08 21:50 -39.29592 145.56349 33338 ft 418 kts 163°
2026-05-08 21:51 -39.35088 145.58812 33341 ft 418 kts 163°
2026-05-08 21:51 -39.40581 145.61292 33345 ft 418 kts 163°
2026-05-08 21:52 -39.46079 145.63773 33344 ft 418 kts 163°
2026-05-08 21:52 -39.51569 145.66256 33341 ft 418 kts 163°
2026-05-08 21:53 -39.57050 145.68742 33338 ft 417 kts 163°
2026-05-08 21:53 -39.62542 145.71231 33335 ft 417 kts 163°
2026-05-08 21:54 -39.67990 145.73701 33334 ft 417 kts 163°
2026-05-08 21:54 -39.73467 145.76199 33330 ft 417 kts 163°
2026-05-08 21:55 -39.78950 145.78699 33329 ft 417 kts 163°
2026-05-08 21:56 -39.86242 145.82027 33328 ft 417 kts 163°
2026-05-08 21:56 -39.91727 145.84533 33323 ft 417 kts 164°
2026-05-08 21:57 -39.97207 145.87049 33321 ft 417 kts 163°
2026-05-08 21:57 -40.02684 145.89573 33319 ft 418 kts 163°
2026-05-08 21:58 -40.08162 145.92106 33319 ft 418 kts 163°
2026-05-08 21:58 -40.13636 145.94649 33313 ft 418 kts 164°
2026-05-08 21:59 -40.19119 145.97184 33313 ft 418 kts 164°
2026-05-08 21:59 -40.24594 145.99727 33308 ft 418 kts 164°
2026-05-08 22:00 -40.30069 146.02283 33302 ft 417 kts 164°
2026-05-08 22:00 -40.35540 146.04838 33299 ft 417 kts 164°
2026-05-08 22:01 -40.41005 146.07392 33292 ft 417 kts 164°
2026-05-08 22:01 -40.46476 146.09966 33288 ft 417 kts 164°
2026-05-08 22:02 -40.51907 146.12520 33287 ft 417 kts 164°
2026-05-08 22:02 -40.57376 146.15087 33285 ft 417 kts 164°
2026-05-08 22:03 -40.62840 146.17654 33289 ft 417 kts 164°
2026-05-08 22:03 -40.68302 146.20226 33284 ft 417 kts 164°
2026-05-08 22:04 -40.73763 146.22804 33282 ft 417 kts 164°
2026-05-08 22:04 -40.79217 146.25389 33283 ft 416 kts 164°
2026-05-08 22:05 -40.84666 146.27986 33269 ft 416 kts 164°
2026-05-08 22:05 -40.90102 146.30578 33259 ft 415 kts 164°
2026-05-08 22:06 -40.95527 146.33164 33272 ft 415 kts 164°
2026-05-08 22:06 -41.00952 146.35742 33255 ft 414 kts 164°
2026-05-08 22:07 -41.06369 146.38329 33266 ft 414 kts 164°
2026-05-08 22:07 -41.11779 146.40919 33267 ft 413 kts 164°
2026-05-08 22:08 -41.17181 146.43548 33285 ft 415 kts 160°
2026-05-08 22:08 -41.22426 146.46820 33281 ft 416 kts 159°
2026-05-08 22:09 -41.27627 146.50099 33299 ft 416 kts 159°
2026-05-08 22:09 -41.32906 146.53443 32988 ft 427 kts 159°
2026-05-08 22:09 -41.35601 146.55145 32730 ft 428 kts 159°
2026-05-08 22:10 -41.38291 146.56844 32486 ft 427 kts 159°
2026-05-08 22:10 -41.40964 146.58534 32236 ft 425 kts 159°
2026-05-08 22:10 -41.43628 146.60226 31988 ft 423 kts 158°
2026-05-08 22:10 -41.46272 146.61906 31734 ft 420 kts 158°
2026-05-08 22:11 -41.48907 146.63581 31414 ft 416 kts 158°
2026-05-08 22:11 -41.51505 146.65233 30896 ft 412 kts 158°
2026-05-08 22:11 -41.54091 146.66875 30377 ft 409 kts 158°
2026-05-08 22:11 -41.56644 146.68500 29817 ft 405 kts 158°
2026-05-08 22:12 -41.59175 146.70114 29318 ft 400 kts 158°
2026-05-08 22:12 -41.61676 146.71709 28809 ft 396 kts 158°
2026-05-08 22:12 -41.64146 146.73283 28315 ft 391 kts 158°
2026-05-08 22:12 -41.66589 146.74845 27797 ft 387 kts 157°
2026-05-08 22:13 -41.68967 146.76498 27475 ft 381 kts 152°
2026-05-08 22:13 -41.71185 146.78322 27386 ft 369 kts 152°
2026-05-08 22:13 -41.73328 146.80117 27304 ft 359 kts 152°
2026-05-08 22:13 -41.75411 146.81874 27226 ft 362 kts 152°
2026-05-08 22:14 -41.77577 146.83705 27151 ft 362 kts 151°
2026-05-08 22:14 -41.79674 146.85484 27068 ft 362 kts 152°
2026-05-08 22:14 -41.81814 146.87299 26991 ft 362 kts 152°
2026-05-08 22:14 -41.83943 146.89105 26913 ft 362 kts 152°
2026-05-08 22:15 -41.86069 146.90905 26672 ft 362 kts 152°
2026-05-08 22:15 -41.88195 146.92702 26230 ft 360 kts 152°
2026-05-08 22:15 -41.90311 146.94495 25787 ft 359 kts 152°
2026-05-08 22:15 -41.92421 146.96287 25355 ft 358 kts 151°
2026-05-08 22:16 -41.94518 146.98069 24889 ft 355 kts 151°
2026-05-08 22:16 -41.96604 146.99840 24514 ft 353 kts 152°
2026-05-08 22:16 -41.98676 147.01600 24107 ft 352 kts 152°
2026-05-08 22:16 -42.00742 147.03355 23678 ft 350 kts 152°
2026-05-08 22:17 -42.02792 147.05099 23260 ft 348 kts 151°
2026-05-08 22:17 -42.04837 147.06842 22869 ft 346 kts 151°
2026-05-08 22:17 -42.06860 147.08567 22470 ft 344 kts 151°
2026-05-08 22:17 -42.08879 147.10291 22065 ft 342 kts 151°
2026-05-08 22:18 -42.10883 147.12002 21668 ft 341 kts 151°
2026-05-08 22:18 -42.12880 147.13710 21253 ft 339 kts 151°
2026-05-08 22:18 -42.14867 147.15410 20840 ft 338 kts 151°
2026-05-08 22:18 -42.16820 147.17082 20422 ft 336 kts 151°
2026-05-08 22:19 -42.18790 147.18769 19997 ft 335 kts 151°
2026-05-08 22:19 -42.20777 147.20471 19564 ft 334 kts 151°
2026-05-08 22:19 -42.22737 147.22150 19126 ft 333 kts 150°
2026-05-08 22:19 -42.24690 147.23828 18693 ft 333 kts 150°
2026-05-08 22:20 -42.26645 147.25508 18208 ft 333 kts 150°
2026-05-08 22:20 -42.28567 147.27162 17761 ft 331 kts 150°
2026-05-08 22:20 -42.30508 147.28834 17313 ft 330 kts 150°
2026-05-08 22:20 -42.32435 147.30494 16872 ft 328 kts 150°
2026-05-08 22:21 -42.34359 147.32153 16409 ft 328 kts 150°
2026-05-08 22:21 -42.36301 147.33829 15793 ft 332 kts 150°
2026-05-08 22:21 -42.38241 147.35504 15349 ft 331 kts 150°
2026-05-08 22:21 -42.40182 147.37179 14887 ft 330 kts 150°
2026-05-08 22:22 -42.42116 147.38849 14440 ft 330 kts 150°
2026-05-08 22:22 -42.44049 147.40522 13987 ft 330 kts 150°
2026-05-08 22:22 -42.45328 147.41628 13657 ft 329 kts 150°
2026-05-08 22:23 -42.46865 147.42970 13298 ft 328 kts 150°
2026-05-08 22:23 -42.48781 147.44632 12832 ft 326 kts 150°
2026-05-08 22:23 -42.50691 147.46283 12380 ft 325 kts 151°
2026-05-08 22:23 -42.52597 147.47929 11931 ft 324 kts 151°
2026-05-08 22:24 -42.54491 147.49568 11478 ft 322 kts 151°
2026-05-08 22:24 -42.56374 147.51204 11039 ft 322 kts 151°
2026-05-08 22:24 -42.58259 147.52844 10592 ft 320 kts 151°
2026-05-08 22:24 -42.60116 147.54462 10368 ft 313 kts 151°
2026-05-08 22:25 -42.61914 147.56033 10252 ft 302 kts 151°
2026-05-08 22:25 -42.63649 147.57554 10133 ft 292 kts 152°
2026-05-08 22:25 -42.65334 147.59030 9946 ft 284 kts 152°
2026-05-08 22:25 -42.66996 147.60478 9573 ft 284 kts 152°
2026-05-08 22:26 -42.68643 147.61913 9297 ft 280 kts 152°
2026-05-08 22:26 -42.70273 147.63332 8831 ft 277 kts 153°
2026-05-08 22:26 -42.71887 147.64738 8224 ft 275 kts 153°
2026-05-08 22:26 -42.73488 147.66137 7649 ft 273 kts 153°
2026-05-08 22:27 -42.75076 147.67528 7113 ft 270 kts 153°
2026-05-08 22:27 -42.76645 147.68905 6564 ft 267 kts 153°
2026-05-08 22:27 -42.78201 147.70271 6011 ft 265 kts 154°
2026-05-08 22:27 -42.79733 147.71616 5561 ft 258 kts 154°
2026-05-08 22:28 -42.81245 147.72943 4952 ft 259 kts 154°
2026-05-08 22:28 -42.82738 147.74254 4604 ft 251 kts 153°
2026-05-08 22:28 -42.84187 147.75501 4278 ft 239 kts 159°
2026-05-08 22:28 -42.85678 147.76188 4187 ft 217 kts 178°
2026-05-08 22:29 -42.87107 147.76219 4110 ft 201 kts 193°
2026-05-08 22:29 -42.88406 147.75724 4023 ft 188 kts 208°
2026-05-08 22:29 -42.89547 147.74958 3941 ft 179 kts 210°
2026-05-08 22:29 -42.90619 147.74238 3883 ft 167 kts 210°
2026-05-08 22:30 -42.91649 147.73540 3776 ft 164 kts 212°
2026-05-08 22:30 -42.92474 147.72519 3697 ft 161 kts 238°
2026-05-08 22:30 -42.92819 147.71073 3498 ft 163 kts 264°
2026-05-08 22:30 -42.92810 147.69558 3263 ft 157 kts 266°
2026-05-08 22:31 -42.92806 147.68092 3030 ft 152 kts 266°
2026-05-08 22:31 -42.92805 147.66673 2821 ft 147 kts 266°
2026-05-08 22:31 -42.92805 147.65294 2602 ft 144 kts 266°
2026-05-08 22:31 -42.92708 147.63942 2404 ft 146 kts 284°
2026-05-08 22:32 -42.92143 147.62763 2206 ft 153 kts 309°
2026-05-08 22:32 -42.91387 147.61746 1996 ft 153 kts 309°
2026-05-08 22:32 -42.90631 147.60721 1777 ft 154 kts 309°
2026-05-08 22:32 -42.89891 147.59719 1591 ft 142 kts 310°
2026-05-08 22:33 -42.89202 147.58788 1380 ft 138 kts 310°
2026-05-08 22:33 -42.88529 147.57873 1193 ft 136 kts 311°
2026-05-08 22:33 -42.87864 147.56966 1028 ft 134 kts 312°
2026-05-08 22:33 -42.87203 147.56064 830 ft 134 kts 313°
2026-05-08 22:34 -42.86550 147.55172 669 ft 132 kts 314°
2026-05-08 22:34 -42.85902 147.54287 468 ft 132 kts 314°
2026-05-08 22:34 -42.85257 147.53403 303 ft 131 kts 314°
2026-05-08 22:34 -42.84609 147.52528 84 ft 131 kts 314°
2026-05-08 22:35 -42.84008 147.51710 22 ft 100 kts 315°
2026-05-08 22:35 -42.83699 147.51291 24 ft 43 kts 315°
2026-05-08 22:35 -42.83518 147.51045 22 ft 32 kts 315°
2026-05-08 22:35 -42.83389 147.50870 22 ft 20 kts 315°
2026-05-08 22:36 -42.83331 147.50736 22 ft 12 kts 260°
2026-05-08 22:36 -42.83337 147.50620 22 ft 14 kts 237°
2026-05-08 22:36 -42.83423 147.50557 22 ft 16 kts 161°
2026-05-08 22:36 -42.83500 147.50651 22 ft 14 kts 135°
2026-05-08 22:37 -42.83571 147.50698 22 ft 11 kts 202°
2026-05-08 22:37 -42.83618 147.50633 23 ft 6 kts 226°
2026-05-08 22:37 -42.83640 147.50604 22 ft 4 kts 224°
2026-05-08 22:37 -42.83653 147.50586 23 ft 2 kts 224°
2026-05-08 22:38 -42.83660 147.50576 22 ft 0 kts 224°